Regional Weather Roundup
Issued by NWS

Home | Current Version | Previous Version | Text Only | Print | Product List | Glossary On
Versions: 1 2 3 4 5 6 7 8 9 10 11 12 13 14 15 16 17 18 19 20 21 22 23 24 25 26 27 28 29 30 31 32 33 34 35 36 37 38 39 40 41 42 43 44 45 46 47 48 49 50
000
ASUS42 KKEY 310810
RWRKEY

FLORIDA REGIONAL WEATHER ROUNDUP FOR THE FLORIDA KEYS
NATIONAL WEATHER SERVICE KEY WEST FLORIDA
400 AM EDT SUN AUG 31 2014

...SOUTH FLORIDA AND THE KEYS...

CITY           SKY/WX    TMP DP  RH WIND       PRES   REMARKS
FORT MYERS     CLEAR     78  75  90 NE3       30.08F
SW REGIONAL AP CLEAR     76  74  93 E5        30.09F
NAPLES         CLEAR     79  75  87 E5        30.08F
MIAMI          MOCLDY    84  74  71 E9        30.08S HX  91
WEST KENDALL   PTCLDY    82  75  79 SE6       30.08S
HOMESTEAD      PTCLDY    82  75  81 E6        30.07F
MARATHON       CLEAR     84  76  76 E6        30.05F HX  93
BOCA CHICA NAS PTCLDY    84  76  76 SE8       30.05F HX  93
KEY WEST INTL  PTCLDY    85  75  72 SE13      30.05F HX  93

...INTERNATIONAL WEATHER...

CITY           SKY/WX    TMP DP  RH WIND       PRES   REMARKS
NASSAU BAHAMAS PTCLDY    81  75  83 CALM      30.09S
CANCUN MEXICO  CLOUDY    79  75  89 SE6       29.92F
COZUMEL MEXICO PTCLDY    73  73 100 CALM      29.91F

ADJACENT COASTAL WATERS...

STATION/POSITION TIME  SKY/WX   TEMP    WIND        PRES    WAVE
                                AIR SEA DIR/SP/G            HT/PER
                 (UTC)          (F)     (DEG/KT/KT) (MB)    (FT/S)
PULASKI SHOAL LI 0800            85     120/ 16/ 17 1017.0F
SAND KEY         0800            84     120/ 14/ 16 1017.4F
SOMBRERO KEY     0800            85      90/ 13/ 14 1018.2F
LONG KEY         0700            84 86   90/  9/ 10 1018.8F
MOLASSES REEF    0800            85 87   80/ 11/ 13 1017.8F
FOWEY ROCKS      0800            84 87  120/  8/  9 1018.8F
Buoy 42080       NOT AVBL

$$


USA.gov is the U.S. government's official web portal to all federal, state and local government web resources and services.